This is the latest recevied weather packets stored in our database for station/object IT9FBN-3. If no packets are shown the sender has not sent any weather packets the latest 10 day(s).
| Time | Temp. | Humidity | Pressure | Rain* | Wind** | Luminosity | Snow |
|---|---|---|---|---|---|---|---|
| 1777714205 | 16.11° C | 49% | 1022.3 hPa | 0 mm | - | - | - |
| 1777713904 | 16.11° C | 49% | 1022.2 hPa | 0 mm | - | - | - |
| 1777713604 | 15.56° C | 48% | 1022.3 hPa | 0 mm | - | - | - |
| 1777713305 | 15.56° C | 50% | 1022.2 hPa | 0 mm | - | - | - |
| 1777713004 | 15.56° C | 49% | 1022.3 hPa | 0 mm | - | - | - |
| 1777712704 | 15.56° C | 47% | 1022.3 hPa | 0 mm | - | - | - |
| 1777712404 | 16.11° C | 48% | 1022.4 hPa | 0 mm | - | - | - |
| 1777712104 | 16.11° C | 47% | 1022.2 hPa | 0 mm | - | - | - |
| 1777711805 | 15.56° C | 47% | 1022.1 hPa | 0 mm | - | - | - |
| 1777711504 | 15.56° C | 47% | 1022.1 hPa | 0 mm | - | - | - |
| 1777711204 | 15.56° C | 47% | 1022 hPa | 0 mm | - | - | - |
| 1777710904 | 15.56° C | 47% | 1022.1 hPa | 0 mm | - | - | - |
| 1777710604 | 15.56° C | 48% | 1022 hPa | 0 mm | - | - | - |
| 1777710304 | 15° C | 49% | 1022 hPa | 0 mm | - | - | - |
| 1777710004 | 15° C | 49% | 1022.1 hPa | 0 mm | - | - | - |
| 1777709705 | 15° C | 49% | 1022.1 hPa | 0 mm | - | - | - |
| 1777709405 | 15° C | 50% | 1022 hPa | 0 mm | - | - | - |
| 1777709105 | 15° C | 49% | 1022 hPa | 0 mm | - | - | - |
| 1777708805 | 15° C | 52% | 1022 hPa | 0 mm | - | - | - |
| 1777708504 | 14.44° C | 53% | 1021.9 hPa | 0 mm | - | - | - |
| 1777708205 | 14.44° C | 54% | 1021.8 hPa | 0 mm | - | - | - |
| 1777707905 | 14.44° C | 54% | 1021.8 hPa | 0 mm | - | - | - |
| 1777707604 | 14.44° C | 54% | 1021.8 hPa | 0 mm | - | - | - |
| 1777707304 | 14.44° C | 56% | 1022 hPa | 0 mm | - | - | - |
| 1777707005 | 14.44° C | 56% | 1021.9 hPa | 0 mm | - | - | - |
* Rain latest hour (hover to see other rain measurements)
** Current wind speed in m/s (hover to see current wind gust speed)